Miscellaneous Local Product
Issued by NWS North Platte, NE

Home | Current Version | Previous Version | Graphics & Text | Print | Product List | Glossary On
Versions: 1 2 3 4 5 6 7 8 9 10 11 12 13 14 15 16 17 18 19 20 21 22 23 24 25 26 27 28 29 30 31 32 33 34 35 36 37 38 39 40 41 42 43 44 45 46 47 48 49 50
450
AXUS43 KLBF 252310
MISLBF


WESTERN AND NORTH CENTRAL NEBRASKA HOURLY WEATHER ROUNDUP
NATIONAL WEATHER SERVICE NORTH PLATTE NE
600 PM CDT SAT MAR 25 2017

NOTE: "FAIR" INDICATES FEW OR NO CLOUDS BELOW 12,000 FEET WITH NO
SIGNIFICANT WEATHER AND/OR OBSTRUCTIONS TO VISIBILITY.

NOTE: STATIONS NOT REPORTING VARIABLES SUCH AS SKY/WEATHER OR
PRESSURE ARE PROVIDED BY RAWS AND APRS NETWORKS AND ARE NOT UNDER
NATIONAL WEATHER SERVICE QUALITY CONTROL.

...OBSERVATIONS IN AND NEAR THE EASTERN PANHANDLE OF NEBRASKA...

CITY           SKY/WX    TMP DP  RH WIND       PRES   REMARKS
PINE RIDGE     MOSUNNY   67  32  27 S8        29.80F
CHADRON        CLOUDY    68  30  24 CALM      29.79F
ALLIANCE       CLOUDY    64  29  26 S6        29.83F
SIDNEY         CLOUDY    61  30  31 S7        29.87F
CRESCENT LAKE    N/A     64  31  28 SE8G15      N/A
$$

...OBSERVATIONS IN NORTHERN NEBRASKA AND FAR SOUTHERN SOUTH DAKOTA...

CITY           SKY/WX    TMP DP  RH WIND       PRES   REMARKS
WINNER         FAIR      59  32  36 SE14      29.90F
VALENTINE      SUNNY     62  17  17 SE7       29.88S
THEDFORD       SUNNY     63  24  22 SE6       29.88F
AINSWORTH      SUNNY     57  37  48 E10       29.90S
O`NEILL        CLOUDY    40  38  93 E9        29.96S WCI  34
ORD            CLOUDY    43  38  82 E9        29.92F
BROKEN BOW     MOSUNNY   51  43  74 E12       29.90F
VALENTINE NWR    N/A     64  17  16 SE6         N/A
HALSEY           N/A     63  25  23 E6          N/A
BUTTE            N/A     42  37  82 E10         N/A
CHAMBERS         N/A     42  38  86 E3          N/A
EWING            N/A     38  37  97 NE3         N/A
$$

...OBSERVATIONS IN SOUTHWEST NEBRASKA AND FAR NORTHEAST COLORADO...

CITY           SKY/WX    TMP DP  RH WIND       PRES   REMARKS
WRAY           FAIR      61  23  23 S10       29.89F
HOLYOKE        FAIR      61  30  31 S6        29.89F
IMPERIAL       CLOUDY    59  26  28 SE5       29.88F
OGALLALA       CLOUDY    62  21  20 CALM      29.88S
NORTH PLATTE   SUNNY     64  22  20 E5        29.86F
MCCOOK         SUNNY     63  33  32 E9        29.86F
LEXINGTON      MOSUNNY   50  42  75 E10       29.91S
STAPLETON        N/A     61  28  28 E3          N/A
GOTHENBURG       N/A     61  35  37 N3          N/A
CALLAWAY         N/A     57  41  56 E7          N/A
$$

...OBSERVATIONS IN CENTRAL LINCOLN COUNTY AREA...

CITY           SKY/WX    TMP DP  RH WIND       PRES   REMARKS
N.P. AIRPORT   SUNNY     64  22  20 E5        29.86F
N.P. DOWNTOWN    N/A     62  26  25 CALM        N/A
N.P. SOUTHEAST   N/A     64  23  21 CALM        N/A
N.P. HILLCREST   N/A     62  19  19 E5          N/A
$$

...SOME OBSERVATIONS FROM AROUND THE REGION...

CITY           SKY/WX    TMP DP  RH WIND       PRES   REMARKS
DENVER         CLOUDY    59  19  21 E13       29.85F
LIMON          CLOUDY    55  28  35 S9        29.89F
ASPEN          CLOUDY    56  17  21 N12       29.86F
LARAMIE        CLOUDY    56  13  18 W3        29.86F
CASPER         CLOUDY    56  30  37 N6        29.84F
CHEYENNE       CLOUDY    56  16  20 S14       29.88F
SCOTTSBLUFF    CLOUDY    67  27  22 SE7       29.82S
GRAND ISLAND   CLOUDY    40  40 100 N10       29.94F WCI  33
OMAHA          CLOUDY    43  37  79 N14       29.93R
SIOUX FALLS    CLOUDY    42  38  85 E9        30.00S
PIERRE         PTSUNNY   56  31  38 E16       29.89F
RAPID CITY     CLOUDY    63  30  28 NW13      29.81F
BISMARCK       SUNNY     55  30  38 S7        29.92F
KANSAS CITY    CLOUDY    49  47  93 N9        29.84R
HILL CITY      SUNNY     54  42  64 E9        29.91S
WICHITA        CLOUDY    46  41  82 N10       29.91S
DODGE CITY     SUNNY     64  39  39 NE7       29.88F
OKLAHOMA CITY  MOSUNNY   60  43  53 NW5       29.91F
DALLAS         MOSUNNY   73  43  33 NW13      29.90F
AMARILLO       SUNNY     69  29  22 MISG      29.91F
$$




USA.gov is the U.S. government's official web portal to all federal, state and local government web resources and services.